Granite Falls, MN

6:28 PM CDT on May 21, 2018 (GMT -0500)
Granite Falls

Weather History for KGDB - October, 2012

Change the Weather History Date:

Sunday, October 7, 2012

  Actual Average (KMVE) Record (KMVE)
Temperature  
Mean Temperature 38 °F -  
Max Temperature 56 °F 64 °F 92 °F (1980)
Min Temperature 21 °F 38 °F 20 °F (1976)
Degree Days  
Heating Degree Days 26    
Moisture  
Dew Point 18 °F    
Average Humidity 50    
Maximum Humidity 82    
Minimum Humidity 20    
Precipitation  
Precipitation 0.00 in - - ()
Sea Level Pressure  
Sea Level Pressure 30.06 in    
Wind  
Wind Speed 8 mph (SSW)    
Max Wind Speed 17 mph    
Max Gust Speed 23 mph    
Visibility 10 miles    
Events      
Averages and records for this station are not official NWS values.
T = Trace of Precipitation, MM = Missing Value Source: NWS Daily Summary

Daily Weather History Graph

Daily Weather History Graph

Search for Another Location

Airport or City:

Astronomy

Oct. 07, 2012 Rise Set
Actual Time 7:28 AM CDT 6:50 PM CDT
Civil Twilight 6:58 AM CDT 7:20 PM CDT
Nautical Twilight 6:25 AM CDT 7:53 PM CDT
Astronomical Twilight 5:51 AM CDT 8:27 PM CDT
Moon 11:53 PM CDT (10/7) 2:16 PM CDT (10/7)
Length of Visible Light 12h 21m
Length of Day
11h 22m
Waning Gibbous, 56% of the Moon is Illuminated
Oct 7
Waning Gibbous
Oct 8
Last Quarter
Oct 15
New
Oct 21
First Quarter
Oct 29
Full

Hourly Weather History & Observations

Time (CDT) Temp. Windchill Dew Point Humidity Pressure Visibility Wind Dir Wind Speed Gust Speed Precip Events Conditions
12:12 AM 21.7 °F 15.5 °F 16.2 °F 79% 30.27 in 10.0 mi SW 4.6 mph - N/A   Clear
12:32 AM 22.1 °F 17.4 °F 17.1 °F 81% 30.26 in 10.0 mi SSW 3.5 mph - N/A   Clear
12:52 AM 23.5 °F 19.1 °F 17.6 °F 78% 30.25 in 10.0 mi SW 3.5 mph - N/A   Clear
1:12 AM 23.4 °F 18.9 °F 17.4 °F 78% 30.25 in 10.0 mi SW 3.5 mph - N/A   Clear
1:32 AM 21.9 °F 15.7 °F 16.5 °F 80% 30.25 in 10.0 mi SW 4.6 mph - N/A   Clear
1:52 AM 21.0 °F 13.4 °F 15.8 °F 80% 30.24 in 10.0 mi SW 5.8 mph - N/A   Clear
2:12 AM 21.2 °F 14.9 °F 16.3 °F 82% 30.24 in 10.0 mi SSW 4.6 mph - N/A   Clear
2:31 AM 21.2 °F 14.9 °F 16.2 °F 81% 30.24 in 10.0 mi SSW 4.6 mph - N/A   Clear
2:52 AM 23.5 °F 15.4 °F 18.3 °F 80% 30.23 in 10.0 mi SSW 6.9 mph - N/A   Clear
3:12 AM 22.3 °F 13.0 °F 17.4 °F 82% 30.22 in 10.0 mi SSW 8.1 mph - N/A   Clear
3:52 AM 25.5 °F 16.2 °F 19.2 °F 77% 30.21 in 10.0 mi SSW 9.2 mph - N/A   Clear
4:12 AM 24.8 °F 15.3 °F 19.0 °F 79% 30.20 in 10.0 mi SSW 9.2 mph - N/A   Clear
4:32 AM 25.7 °F 16.4 °F 19.4 °F 77% 30.20 in 10.0 mi SSW 9.2 mph - N/A   Clear
4:52 AM 26.4 °F 16.6 °F 19.6 °F 75% 30.20 in 10.0 mi SSW 10.4 mph - N/A   Clear
5:12 AM 26.2 °F 17.1 °F 19.4 °F 75% 30.19 in 10.0 mi South 9.2 mph - N/A   Clear
5:31 AM 26.2 °F 17.1 °F 20.1 °F 78% 30.18 in 10.0 mi South 9.2 mph - N/A   Clear
5:52 AM 27.3 °F 19.1 °F 20.5 °F 75% 30.18 in 10.0 mi SSW 8.1 mph - N/A   Clear
6:12 AM 26.6 °F 17.5 °F 20.3 °F 77% 30.18 in 10.0 mi SSW 9.2 mph - N/A   Clear
6:32 AM 26.6 °F 17.5 °F 20.3 °F 77% 30.17 in 10.0 mi SSW 9.2 mph - N/A   Clear
6:52 AM 26.1 °F 18.4 °F 19.9 °F 78% 30.17 in 10.0 mi SSW 6.9 mph - N/A   Clear
7:12 AM 25.7 °F 18.0 °F 19.8 °F 78% 30.16 in 10.0 mi SSW 6.9 mph - N/A   Clear
7:32 AM 27.0 °F 18.7 °F 20.3 °F 76% 30.16 in 10.0 mi SSW 8.1 mph - N/A   Clear
7:52 AM 28.4 °F 20.4 °F 21.2 °F 74% 30.15 in 10.0 mi SSW 8.1 mph - N/A   Clear
8:12 AM 29.8 °F 21.5 °F 21.7 °F 72% 30.15 in 10.0 mi South 9.2 mph - N/A   Clear
8:32 AM 30.9 °F 22.2 °F 21.6 °F 68% 30.15 in 10.0 mi SSW 10.4 mph - N/A   Clear
8:52 AM 32.7 °F 25.0 °F 22.1 °F 65% 30.15 in 10.0 mi SSW 9.2 mph - N/A   Clear
9:12 AM 35.6 °F 28.0 °F 21.9 °F 58% 30.14 in 10.0 mi SSW 10.4 mph - N/A   Clear
9:32 AM 38.3 °F 31.4 °F 21.7 °F 51% 30.14 in 10.0 mi South 10.4 mph - N/A   Clear
9:52 AM 38.5 °F 30.7 °F 21.0 °F 50% 30.13 in 10.0 mi SSW 12.7 mph 16.1 mph N/A   Clear
10:12 AM 41.7 °F 34.8 °F 21.9 °F 45% 30.13 in 10.0 mi SSW 12.7 mph - N/A   Clear
10:32 AM 43.0 °F 35.4 °F 21.4 °F 42% 30.12 in 10.0 mi SSW 16.1 mph 21.9 mph N/A   Clear
10:52 AM 45.1 °F 37.9 °F 21.4 °F 39% 30.11 in 10.0 mi SSW 17.3 mph 23.0 mph N/A   Clear
11:12 AM 46.6 °F - 20.7 °F 36% 30.10 in 10.0 mi SSW 15.0 mph - N/A   Clear
11:32 AM 47.8 °F - 20.1 °F 33% 30.09 in 10.0 mi SSW 15.0 mph 21.9 mph N/A   Clear
11:52 AM 49.5 °F - 19.4 °F 31% 30.08 in 10.0 mi SSW 16.1 mph 19.6 mph N/A   Clear
12:12 PM 50.4 °F - 17.8 °F 28% 30.07 in 10.0 mi SW 15.0 mph 19.6 mph N/A   Clear
12:32 PM 52.3 °F - 14.0 °F 22% 30.06 in 10.0 mi SSW 11.5 mph 17.3 mph N/A   Clear
12:52 PM 53.2 °F - 14.2 °F 21% 30.05 in 10.0 mi SW 15.0 mph 23.0 mph N/A   Clear
1:32 PM 53.8 °F - 17.6 °F 24% 30.03 in 10.0 mi SSW 15.0 mph - N/A   Clear
1:52 PM 53.8 °F - 18.1 °F 25% 30.02 in 10.0 mi SW 12.7 mph 20.7 mph N/A   Clear
2:12 PM 54.3 °F - 18.7 °F 25% 30.00 in 10.0 mi SSW 11.5 mph 16.1 mph N/A   Clear
2:32 PM 55.4 °F - 16.9 °F 22% 30.00 in 10.0 mi WSW 11.5 mph 19.6 mph N/A   Clear
2:52 PM 55.6 °F - 17.1 °F 22% 29.98 in 10.0 mi SSW 12.7 mph 20.7 mph N/A   Clear
3:12 PM 55.9 °F - 16.5 °F 21% 29.97 in 10.0 mi SW 11.5 mph 20.7 mph N/A   Clear
3:32 PM 55.8 °F - 16.7 °F 22% 29.96 in 10.0 mi SSW 10.4 mph - N/A   Clear
3:51 PM 55.9 °F - 15.8 °F 21% 29.95 in 10.0 mi SW 15.0 mph 18.4 mph N/A   Clear
4:12 PM 56.1 °F - 15.6 °F 20% 29.94 in 10.0 mi SW 15.0 mph 20.7 mph N/A   Clear
4:32 PM 56.1 °F - 16.2 °F 21% 29.94 in 10.0 mi SSW 13.8 mph 18.4 mph N/A   Clear
4:52 PM 55.9 °F - 15.8 °F 21% 29.93 in 10.0 mi SSW 10.4 mph - N/A   Clear
5:11 PM 55.8 °F - 14.9 °F 20% 29.93 in 10.0 mi SW 10.4 mph - N/A   Scattered Clouds
5:32 PM 55.4 °F - 14.7 °F 20% 29.92 in 10.0 mi SW 8.1 mph - N/A   Scattered Clouds
5:52 PM 54.7 °F - 15.4 °F 21% 29.91 in 10.0 mi SW 9.2 mph - N/A   Clear
6:12 PM 52.9 °F - 16.0 °F 23% 29.91 in 10.0 mi SW 10.4 mph - N/A   Clear
6:32 PM 51.8 °F - 16.7 °F 25% 29.91 in 10.0 mi SW 5.8 mph - N/A   Clear
6:52 PM 48.7 °F - 15.8 °F 27% 29.90 in 10.0 mi SSW 4.6 mph - N/A   Clear
7:12 PM 44.8 °F 42.4 °F 15.4 °F 31% 29.90 in 7.0 mi SW 4.6 mph - N/A   Scattered Clouds
7:31 PM 45.3 °F 43.0 °F 15.4 °F 30% 29.90 in 10.0 mi South 4.6 mph - N/A   Clear
7:52 PM 41.5 °F 37.8 °F 14.0 °F 33% 29.90 in 7.0 mi South 5.8 mph - N/A   Clear
8:12 PM 40.3 °F 36.3 °F 14.2 °F 35% 29.90 in 7.0 mi South 5.8 mph - N/A   Clear
8:32 PM 38.1 °F 32.3 °F 14.9 °F 39% 29.89 in 10.0 mi South 8.1 mph - N/A   Clear
8:52 PM 36.5 °F 31.0 °F 14.9 °F 41% 29.89 in 10.0 mi South 6.9 mph - N/A   Clear
9:12 PM 36.5 °F 31.0 °F 15.4 °F 42% 29.89 in 10.0 mi South 6.9 mph - N/A   Clear
9:32 PM 35.1 °F 28.6 °F 15.3 °F 44% 29.89 in 10.0 mi SSE 8.1 mph - N/A   Clear
9:52 PM 36.0 °F 29.6 °F 16.2 °F 45% 29.89 in 10.0 mi SSE 8.1 mph - N/A   Clear
10:12 PM 34.5 °F 27.9 °F 16.7 °F 48% 29.88 in 10.0 mi SSE 8.1 mph - N/A   Clear
10:31 PM 33.6 °F 26.8 °F 15.8 °F 48% 29.87 in 10.0 mi South 8.1 mph - N/A   Clear
10:52 PM 33.6 °F 26.2 °F 16.0 °F 48% 29.87 in 10.0 mi SSE 9.2 mph - N/A   Clear
11:12 PM 32.9 °F 24.1 °F 16.7 °F 51% 29.86 in 10.0 mi South 11.5 mph - N/A   Clear
11:31 PM 32.9 °F 24.7 °F 16.9 °F 52% 29.85 in 10.0 mi South 10.4 mph - N/A   Clear
11:52 PM 32.2 °F 23.8 °F 17.2 °F 54% 29.85 in 10.0 mi South 10.4 mph - N/A   Clear